SCP
-0 0 0 0 0 0 0 0 0 0 0 0 0 0 0 0 0 0 0 0 0 0 0 0 0 0 0 0 0 0 0 0
-0 0 0 0 -0 -0 0 0 0 0 0 0 0 0 0 0 0 0 0 0 0 0 0 0 0 0 0 0 0 0 0 0
0 0 0 -0 0 0 0 0 0 0 0 0 0 0 0 0 0 0 0 0 0 0 0 0 0 0 0 0 0 0 0 0
0 0 0 -0 -0 0 0 0 0 0 0 0 0 0 0 0 0 0 0 0 0 0 0 0 0 0 0 0 0 0 0 0
0 0 -0 -0 -0 0 0 0 0 0 0 0 0 0 0 0 0 0 0 0 0 0 0 0 0 0 0 -0 -0 -0 0 0
0 0 0 0 0 0 0 0 0 0 0 0 0 0 0 0 0 0 0 0 0 0 0 0 0 0 0 0 -0 -0 -0 0
0 0 0 0 0 0 0 0 0 0 0 0 0 0 0 0 0 0 0 0 0 0 0 0 0 0 0 0 0 -0 -0 -0
0 0 -0 0 0 0 0 0 0 0 0 0 0 0 0 0 0 0 0 0 0 0 0 0 0 0 0 0 0 0 0 -0
0 -0 -0 0 0 0 0 0 0 0 0 0 0 0 0 0 0 0 0 0 0 0 0 0 0 0 0 0 0 0 0 -0
0 -0 -0 0 0 0 0 0 0 0 0 0 0 0 0 0 0 0 0 0 0 0 0 0 0 0 0 0 0 0 0 -0
0 -0 0 0 0 0 0 0 0 0 0 0 0 0 0 0 0 0 0 0 0 0 0 0 0 0 0 0 0 0 0 0
-0 -0 0 0 0 0 0 0 0 0 0 0 0 0 0 0 0 0 0 0 0 0 0 0 0 0 0 0 0 0 0 0
0 0 0 0 0 0 0 0 0 0 0 0 0 0 0 0 0 0 0 0 0 0 0 0 0 0 0 0 0 0 0 0
0 0 0 0 0 0 0 0 0 0 0 0 0 0 0 0 0 0 0 0 0 0 0 0 0 0 0 0 0 0 0 0
0 0 0 0 0 0 0 0 0 0 0 0 0 0 0 0 0 0 0 0 0 0 0 0 0 0 0 0 0 0 0 0
0 0 0 0 0 0 0 0 0 0 0 0 0 0 0 0 0 0 0 0 0 0 0 0 0 0 0 0 0 0 0 0
0 0 0 0 0 0 0 0 0 0 0 0 0 0 0 0 0 0 0 0 0 0 0 0 0 0 0 0 0 0 0 0
0 0 0 0 0 0 0 0 0 0 0 0 0 0 0 0 0 0 0 0 0 0 0 0 0 0 0 0 0 0 0 0
0 0 0 0 0 0 0 0 0 0 0 0 0 0 0 0 0 0 0 0 0 0 0 0 0 0 0 0 0 0 0 0
-0 0 0 0 0 0 0 0 0 0 0 0 0 0 0 0 0 0 0 0 0 0 0 0 0 0 0 0 0 0 0 0
Wind_Speed_500mb
19 17 18 18 18 18 20 22 22 24 25 26 26 25 26 26 26 25 29 28 26 25 29 33 37 40 43 46 48 55 62 67
20 20 19 17 16 16 19 19 20 23 25 22 20 22 23 25 26 27 29 29 29 28 30 36 40 43 46 45 44 48 50 52
22 21 20 17 15 16 15 18 21 24 21 19 19 20 23 24 27 29 27 28 31 34 37 40 42 41 42 40 41 41 38 38
23 21 18 15 14 13 14 18 21 19 18 19 20 21 21 21 24 27 26 25 28 31 38 38 36 36 34 35 35 29 26 29
22 20 16 14 13 12 14 16 17 14 15 17 18 19 19 18 19 22 24 22 26 25 27 29 32 34 33 29 27 22 20 22
22 21 17 15 14 14 14 14 13 12 13 13 16 18 15 12 13 16 19 17 17 18 19 21 22 25 26 23 20 18 16 16
28 24 20 18 16 16 15 13 11 10 10 12 12 13 11 9 8 11 14 16 18 22 24 24 23 27 26 21 17 13 13 14
35 29 26 22 20 17 16 14 10 7 7 8 8 7 8 7 10 12 13 16 17 18 20 22 24 28 29 30 26 17 12 7
41 32 29 28 26 23 20 17 15 12 10 8 7 7 8 9 9 10 12 15 16 18 18 20 21 21 21 21 22 25 29 27
43 38 34 31 30 32 30 27 25 20 17 16 16 15 14 12 12 10 10 11 12 14 15 16 16 17 19 19 18 18 17 17
42 39 36 32 36 39 40 41 38 32 30 29 28 28 26 24 22 21 19 16 14 14 14 14 14 13 13 14 13 14 15 15
43 41 36 32 39 47 47 52 43 42 42 40 37 34 33 31 29 27 26 24 21 18 16 15 15 13 12 11 12 12 12 10
48 44 39 40 41 47 56 50 51 52 54 50 45 43 41 39 36 35 33 31 28 26 22 18 16 15 16 16 13 12 13 13
50 51 44 39 42 50 48 52 56 57 60 59 55 52 49 47 43 42 39 37 33 32 30 26 24 22 21 21 21 22 23 22
54 51 47 40 41 46 45 49 56 61 62 64 66 61 58 55 52 50 46 42 40 38 36 34 33 30 29 28 28 28 28 29
51 51 49 45 43 43 46 45 53 57 61 68 69 68 67 63 59 56 51 48 46 45 43 41 39 35 35 36 36 36 36 39
48 48 48 48 44 42 42 41 46 54 56 60 70 71 72 69 66 61 57 52 51 49 51 48 46 42 42 41 39 41 42 44
51 47 49 50 47 44 42 40 42 46 48 50 59 65 68 72 72 71 63 60 56 52 51 52 51 48 48 47 47 46 44 47
48 46 48 48 46 45 45 44 43 43 45 44 47 53 61 63 66 65 65 64 61 55 53 52 53 52 52 53 55 55 50 51
48 46 47 48 47 46 45 44 42 40 38 39 42 43 46 53 57 58 59 58 58 55 56 52 54 55 55 52 53 54 54 51
Wind_Direction_500mb
299 293 294 293 288 290 292 294 299 301 298 294 292 294 295 297 301 303 299 301 301 298 297 300 297 295 290 287 283 277 272 273
312 309 303 296 295 301 298 305 309 307 305 303 300 296 302 300 300 300 302 304 300 299 299 299 297 294 290 290 289 284 277 271
322 315 309 305 313 310 312 315 317 316 313 311 304 304 302 302 301 300 302 307 310 308 305 299 296 295 295 296 295 289 279 274
329 326 316 314 313 310 315 319 325 324 317 316 313 311 305 302 300 304 305 307 307 310 305 306 302 299 297 293 294 288 286 283
333 327 323 315 309 308 316 314 323 321 320 329 328 325 316 307 309 315 318 325 316 314 312 318 318 316 311 296 292 290 286 281
329 323 319 312 309 307 311 306 311 319 327 338 338 334 335 340 339 337 340 351 336 344 339 337 339 337 330 318 306 288 278 276
334 319 311 305 302 302 304 301 302 309 317 321 329 332 344 359 6 13 21 29 26 22 21 21 18 14 12 11 1 344 319 295
333 323 311 297 287 286 285 287 289 299 317 324 317 320 341 9 28 23 14 18 9 10 18 24 29 33 33 35 35 35 43 37
331 316 303 293 284 273 268 267 267 267 275 283 289 290 306 319 331 345 347 350 352 356 3 5 7 15 25 29 33 31 37 45
329 318 295 285 277 270 262 257 255 256 261 266 271 276 284 293 298 305 317 324 333 340 344 349 353 357 5 16 25 30 32 38
319 321 315 288 274 267 264 259 258 258 262 264 266 270 276 281 282 287 293 295 301 310 320 326 333 343 351 358 9 14 19 21
316 315 313 305 278 272 268 263 266 261 262 263 265 269 271 273 275 279 285 290 293 296 299 305 312 322 332 338 343 351 355 3
315 311 310 306 296 282 272 275 269 262 261 262 264 265 266 268 270 273 277 280 283 286 288 289 291 297 306 313 314 314 317 323
319 314 310 303 300 290 290 278 270 265 261 261 263 264 264 265 265 267 270 274 277 279 281 284 285 284 288 290 292 298 301 304
326 323 318 311 301 300 294 281 274 264 260 259 258 261 264 264 265 266 268 271 274 275 277 279 278 280 282 280 281 283 284 284
334 330 327 322 312 305 301 289 277 272 263 258 258 258 260 263 265 267 268 270 272 274 275 276 277 279 277 278 282 283 284 284
339 334 333 332 328 315 308 296 283 277 274 265 262 261 261 262 265 265 269 269 269 269 272 274 274 273 274 275 275 277 280 281
342 338 337 336 333 326 320 310 297 288 285 277 271 266 264 264 264 267 268 270 270 271 270 271 273 273 274 275 276 275 274 270
342 339 339 338 336 330 324 319 311 298 291 285 276 269 270 267 266 266 266 268 271 271 271 273 275 275 272 273 275 275 273 273
343 340 339 339 339 336 332 327 320 311 301 294 288 281 272 270 270 269 269 269 270 271 273 273 273 275 277 277 275 276 276 275
Wind_Speed_850mb
19 17 18 18 18 18 20 22 22 24 25 26 26 25 26 26 26 25 29 28 26 25 29 33 37 40 43 46 48 55 62 67
20 20 19 17 16 16 19 19 20 23 25 22 20 22 23 25 26 27 29 29 29 28 30 36 40 43 46 45 44 48 50 52
22 21 20 17 15 16 15 18 21 24 21 19 19 20 23 24 27 29 27 28 31 34 37 40 42 41 42 40 41 41 38 38
23 21 18 15 14 13 14 18 21 19 18 19 20 21 21 21 24 27 26 25 28 31 38 38 36 36 34 35 35 29 26 29
22 20 16 14 13 12 14 16 17 14 15 17 18 19 19 18 19 22 24 22 26 25 27 29 32 34 33 29 27 22 20 22
22 21 17 15 14 14 14 14 13 12 13 13 16 18 15 12 13 16 19 17 17 18 19 21 22 25 26 23 20 18 16 16
28 24 20 18 16 16 15 13 11 10 10 12 12 13 11 9 8 11 14 16 18 22 24 24 23 27 26 21 17 13 13 14
35 29 26 22 20 17 16 14 10 7 7 8 8 7 8 7 10 12 13 16 17 18 20 22 24 28 29 30 26 17 12 7
41 32 29 28 26 23 20 17 15 12 10 8 7 7 8 9 9 10 12 15 16 18 18 20 21 21 21 21 22 25 29 27
43 38 34 31 30 32 30 27 25 20 17 16 16 15 14 12 12 10 10 11 12 14 15 16 16 17 19 19 18 18 17 17
42 39 36 32 36 39 40 41 38 32 30 29 28 28 26 24 22 21 19 16 14 14 14 14 14 13 13 14 13 14 15 15
43 41 36 32 39 47 47 52 43 42 42 40 37 34 33 31 29 27 26 24 21 18 16 15 15 13 12 11 12 12 12 10
48 44 39 40 41 47 56 50 51 52 54 50 45 43 41 39 36 35 33 31 28 26 22 18 16 15 16 16 13 12 13 13
50 51 44 39 42 50 48 52 56 57 60 59 55 52 49 47 43 42 39 37 33 32 30 26 24 22 21 21 21 22 23 22
54 51 47 40 41 46 45 49 56 61 62 64 66 61 58 55 52 50 46 42 40 38 36 34 33 30 29 28 28 28 28 29
51 51 49 45 43 43 46 45 53 57 61 68 69 68 67 63 59 56 51 48 46 45 43 41 39 35 35 36 36 36 36 39
48 48 48 48 44 42 42 41 46 54 56 60 70 71 72 69 66 61 57 52 51 49 51 48 46 42 42 41 39 41 42 44
51 47 49 50 47 44 42 40 42 46 48 50 59 65 68 72 72 71 63 60 56 52 51 52 51 48 48 47 47 46 44 47
48 46 48 48 46 45 45 44 43 43 45 44 47 53 61 63 66 65 65 64 61 55 53 52 53 52 52 53 55 55 50 51
48 46 47 48 47 46 45 44 42 40 38 39 42 43 46 53 57 58 59 58 58 55 56 52 54 55 55 52 53 54 54 51
Wind_Direction_850mb
299 293 294 293 288 290 292 294 299 301 298 294 292 294 295 297 301 303 299 301 301 298 297 300 297 295 290 287 283 277 272 273
312 309 303 296 295 301 298 305 309 307 305 303 300 296 302 300 300 300 302 304 300 299 299 299 297 294 290 290 289 284 277 271
322 315 309 305 313 310 312 315 317 316 313 311 304 304 302 302 301 300 302 307 310 308 305 299 296 295 295 296 295 289 279 274
329 326 316 314 313 310 315 319 325 324 317 316 313 311 305 302 300 304 305 307 307 310 305 306 302 299 297 293 294 288 286 283
333 327 323 315 309 308 316 314 323 321 320 329 328 325 316 307 309 315 318 325 316 314 312 318 318 316 311 296 292 290 286 281
329 323 319 312 309 307 311 306 311 319 327 338 338 334 335 340 339 337 340 351 336 344 339 337 339 337 330 318 306 288 278 276
334 319 311 305 302 302 304 301 302 309 317 321 329 332 344 359 6 13 21 29 26 22 21 21 18 14 12 11 1 344 319 295
333 323 311 297 287 286 285 287 289 299 317 324 317 320 341 9 28 23 14 18 9 10 18 24 29 33 33 35 35 35 43 37
331 316 303 293 284 273 268 267 267 267 275 283 289 290 306 319 331 345 347 350 352 356 3 5 7 15 25 29 33 31 37 45
329 318 295 285 277 270 262 257 255 256 261 266 271 276 284 293 298 305 317 324 333 340 344 349 353 357 5 16 25 30 32 38
319 321 315 288 274 267 264 259 258 258 262 264 266 270 276 281 282 287 293 295 301 310 320 326 333 343 351 358 9 14 19 21
316 315 313 305 278 272 268 263 266 261 262 263 265 269 271 273 275 279 285 290 293 296 299 305 312 322 332 338 343 351 355 3
315 311 310 306 296 282 272 275 269 262 261 262 264 265 266 268 270 273 277 280 283 286 288 289 291 297 306 313 314 314 317 323
319 314 310 303 300 290 290 278 270 265 261 261 263 264 264 265 265 267 270 274 277 279 281 284 285 284 288 290 292 298 301 304
326 323 318 311 301 300 294 281 274 264 260 259 258 261 264 264 265 266 268 271 274 275 277 279 278 280 282 280 281 283 284 284
334 330 327 322 312 305 301 289 277 272 263 258 258 258 260 263 265 267 268 270 272 274 275 276 277 279 277 278 282 283 284 284
339 334 333 332 328 315 308 296 283 277 274 265 262 261 261 262 265 265 269 269 269 269 272 274 274 273 274 275 275 277 280 281
342 338 337 336 333 326 320 310 297 288 285 277 271 266 264 264 264 267 268 270 270 271 270 271 273 273 274 275 276 275 274 270
342 339 339 338 336 330 324 319 311 298 291 285 276 269 270 267 266 266 266 268 271 271 271 273 275 275 272 273 275 275 273 273
343 340 339 339 339 336 332 327 320 311 301 294 288 281 272 270 270 269 269 269 270 271 273 273 273 275 277 277 275 276 276 275